2022-098G (53450 NORAD) Tracking and Keplerian Element Data

This shows tracking and keplerian element data for the satellite.

Feedback or suggestion? Click here.




ElementValue
Catalog53450
Name2022-098G
Epoch Orbit722
Epoch Day270.18658483
Epoch Year2022
RAAN5.7008
Inclination97.5335
Eccentricity0.0010617
Argument of Perigee101.1931
Mean Anonmoly346.0394
Mean Motion15.09725125
Decay Rate3.978E-05
L11 53450U 22098G 22270.18658483 .00003978 00000+0 25034-3 0 9997
L22 53450 97.5335 5.7008 0010617 101.1931 346.0394 15.09725125 7229

Live tracking and technical data element details for 2022-098G (NORAD 53450). 2022-098G can be tracked NOW for your location showing map with azimuth and elevation plus other details from your city location.

Track the satellite on the map from your city or location and see movement details for azimuth, elevation, latitude, longitude, range, height, and movement on the map or in text.







IsCatalogInMostPopularTable: catalog: 53450, numindb: 3
Update: records affected: 1



GetName: 53450 2022-098G

Hit Count: updated at: Thu, 29 Sep 2022 11:19:58 GMT